Location: *
(46.1333°S, 161.2167°W)
Time: 10:03:27
(UTC+00:00)

Cosmos 2298 Rocket - Pass Details

Date: 01 November 2020
Orbit: 777 x 783 km, 74.0° (Epoch: 25 November)

Event Time Altitude Azimuth Distance (km) Brightness Sun altitude
Exits shadow 10:01:15 37° 110° (ESE) 1,221 5.0 -28.9°
Drops below altitude 10° 10:05:06 10° 146° (SE) 2,374 7.1 -29.0°
Sets 10:07:37 0° 152° (SSE) 3,311 8.1 -29.0°
